Tracking 25734 objects as of 26-May-2022
HD Live streaming from Space Station
objects crossing your sky now

COSMOS 2251 DEB

Track COSMOS 2251 DEB now!
10-day predictions


NORAD ID: 36454
Int'l Code: 1993-036BBD
Perigee: 594.4 km
Apogee: 619.9 km
Inclination: 74.0 °
Period: 96.7 minutes
Semi major axis: 6978 km
RCS: 0.003 m2 (small)
Launch date: June 16, 1993
Source: Commonwealth of Independent States (former USSR) (CIS)
Launch site: PLESETSK MISSILE AND SPACE COMPLEX (PKMTR)

Note: This is SATELLITE DEBRIS
aabbcc
Your satellite tracking list
Your tracking list is empty




NASA's NSSDC Master Catalog

Two Line Element Set (TLE):
1 36454U 93036BBD 22145.48211686  .00040388  00000-0  42235-2 0  9994
2 36454  73.9996  76.2653 0018263 231.8236 128.1301 14.89328910667551
Source of the keplerian elements: AFSPC